Tracking 30696 objects as of 16-Jun-2025
HD Live streaming from Space Station
objects crossing your sky now

COSMOS 970 DEB

Track COSMOS 970 DEB now!
10-day predictions


NORAD ID: 12942
Int'l Code: 1977-121AZ
Perigee: 1,047.2 km
Apogee: 1,202.9 km
Inclination: 65.8 °
Period: 107.6 minutes
Semi major axis: 7496 km
RCS: 0.0606 m2 (small)
Launch date: December 21, 1977
Source: Commonwealth of Independent States (former USSR) (CIS)
Launch site: TYURATAM MISSILE AND SPACE COMPLEX (TTMTR)

Note: This is SATELLITE DEBRIS
Your satellite tracking list
Your tracking list is empty




NASA's NSSDC Master Catalog

Two Line Element Set (TLE):
1 12942U 77121AZ  25166.35009604  .00000207  00000-0  51666-3 0  9999
2 12942  65.8306 289.5980 0103875   9.3466  22.0025 13.37690757144560
Source of the keplerian elements: AFSPC